This is the latest recevied weather packets stored in our database for station/object CQ0XSM-11. If no packets are shown the sender has not sent any weather packets the latest 10 day(s).
| Time | Temp. | Humidity | Pressure | Rain* | Wind** | Luminosity | Snow |
|---|---|---|---|---|---|---|---|
| 1778055801 | 11.11° C | 91% | 994.7 hPa | 0 mm | - | - | - |
| 1778055482 | 11.11° C | 96% | 994.7 hPa | 0 mm | - | - | - |
| 1778055170 | 10.56° C | 97% | 994.7 hPa | 0 mm | - | - | - |
| 1778054903 | 10.56° C | 100% | 994.7 hPa | 0 mm | - | - | - |
| 1778054563 | 10° C | 100% | 994.6 hPa | 0 mm | - | - | - |
| 1778054269 | 10° C | 100% | 994.7 hPa | 0 mm | - | - | - |
| 1778053960 | 9.44° C | 100% | 994.7 hPa | 0 mm | - | - | - |
| 1778053679 | 9.44° C | 100% | 994.7 hPa | 0 mm | - | - | - |
| 1778053351 | 8.89° C | 100% | 994.7 hPa | 0 mm | - | - | - |
| 1778053081 | 8.33° C | 100% | 994.7 hPa | 0 mm | - | - | - |
| 1778052744 | 8.33° C | 100% | 994.8 hPa | 0 mm | - | - | - |
| 1778052456 | 7.78° C | 100% | 994.8 hPa | 0 mm | - | - | - |
| 1778051838 | 7.22° C | 100% | 994.8 hPa | 0 mm | - | - | - |
| 1778051532 | 6.67° C | 100% | 994.8 hPa | 0 mm | - | - | - |
| 1778051278 | 6.11° C | 100% | 994.9 hPa | 0 mm | - | - | - |
| 1778050935 | 5.56° C | 100% | 994.9 hPa | 0 mm | - | - | - |
| 1778050622 | 5° C | 100% | 995 hPa | 0 mm | - | - | - |
| 1778050328 | 4.44° C | 100% | 994.8 hPa | 0 mm | - | - | - |
| 1778049733 | 3.89° C | 100% | 994.9 hPa | 0 mm | - | - | - |
| 1778049441 | 3.33° C | 100% | 994.8 hPa | 0 mm | - | - | - |
| 1778049111 | 3.33° C | 100% | 994.9 hPa | 0 mm | - | - | - |
| 1778048819 | 3.33° C | 100% | 994.7 hPa | 0 mm | - | - | - |
| 1778048527 | 2.78° C | 100% | 994.7 hPa | 0 mm | - | - | - |
| 1778048206 | 2.78° C | 100% | 994.8 hPa | 0 mm | - | - | - |
| 1778047894 | 2.78° C | 100% | 994.6 hPa | 0 mm | - | - | - |
* Rain since midnight (hover to see other rain measurements)
** Current wind speed in m/s (hover to see current wind gust speed)